TimeBST,TemperatureF,Dew PointF,Humidity,Sea Level PressureIn,VisibilityMPH,Wind Direction,Wind SpeedMPH,Gust SpeedMPH,PrecipitationIn,Events,Conditions,WindDirDegrees,DateUTC
12:20 AM,39.2,37.4,93,29.53,-9999.0,SW,4.6,-,N/A,,Clear,220,2012-10-03 23:20:00
12:50 AM,39.2,37.4,93,29.53,-9999.0,Variable,3.5,-,N/A,,Clear,0,2012-10-03 23:50:00
1:20 AM,37.4,35.6,93,29.53,-9999.0,WSW,3.5,-,N/A,,Clear,250,2012-10-04 00:20:00
1:50 AM,39.2,37.4,93,29.56,-9999.0,SW,2.3,-,N/A,,Clear,230,2012-10-04 00:50:00
2:20 AM,39.2,37.4,93,29.56,6.2,West,2.3,-,N/A,,Unknown,260,2012-10-04 01:20:00
2:50 AM,35.6,35.6,100,29.56,6.2,NW,2.3,-,N/A,,Unknown,320,2012-10-04 01:50:00
3:20 AM,35.6,33.8,93,29.56,6.2,Calm,Calm,-,N/A,,Partly Cloudy,0,2012-10-04 02:20:00
3:50 AM,33.8,33.8,100,29.56,6.2,South,2.3,-,N/A,,Partly Cloudy,190,2012-10-04 02:50:00
4:20 AM,33.8,33.8,100,29.56,-9999.0,SSW,3.5,-,N/A,,Mist,210,2012-10-04 03:20:00
4:50 AM,33.8,33.8,100,29.56,-9999.0,Calm,Calm,-,N/A,,Mist,0,2012-10-04 03:50:00
5:20 AM,35.6,35.6,100,29.56,-9999.0,NNE,3.5,-,N/A,,Mist,30,2012-10-04 04:20:00
5:50 AM,35.6,33.8,93,29.56,5.6,SE,2.3,-,N/A,Fog,Fog,140,2012-10-04 04:50:00
6:20 AM,33.8,33.8,100,29.59,6.2,North,2.3,-,N/A,Fog,Patches of Fog,360,2012-10-04 05:20:00
6:50 AM,33.8,33.8,100,29.59,6.2,Calm,Calm,-,N/A,Fog,Patches of Fog,0,2012-10-04 05:50:00
7:20 AM,32.0,32.0,100,29.59,6.2,Calm,Calm,-,N/A,,Partly Cloudy,0,2012-10-04 06:20:00
7:50 AM,33.8,32.0,93,29.59,6.2,Calm,Calm,-,N/A,,Partly Cloudy,0,2012-10-04 06:50:00
8:20 AM,35.6,33.8,93,29.59,6.2,Calm,Calm,-,N/A,,Partly Cloudy,0,2012-10-04 07:20:00
8:50 AM,37.4,35.6,93,29.62,6.2,Variable,2.3,-,N/A,Fog,Scattered Clouds,0,2012-10-04 07:50:00
9:20 AM,39.2,39.2,100,29.62,6.2,NNE,2.3,-,N/A,Fog,Mostly Cloudy,30,2012-10-04 08:20:00
9:50 AM,41.0,41.0,100,29.62,6.2,Variable,3.5,-,N/A,Fog,Mostly Cloudy,0,2012-10-04 08:50:00
10:20 AM,44.6,42.8,93,29.62,6.2,Variable,3.5,-,N/A,Fog,Mostly Cloudy,0,2012-10-04 09:20:00
10:50 AM,46.4,44.6,93,29.62,6.2,Variable,3.5,-,N/A,Fog,Mostly Cloudy,0,2012-10-04 09:50:00
11:20 AM,48.2,44.6,87,29.62,6.2,Variable,2.3,-,N/A,,Mostly Cloudy,0,2012-10-04 10:20:00
11:50 AM,50.0,46.4,87,29.62,6.2,Variable,2.3,-,N/A,,Mostly Cloudy,0,2012-10-04 10:50:00
12:20 PM,50.0,46.4,87,29.62,6.2,WSW,6.9,-,N/A,,Mostly Cloudy,250,2012-10-04 11:20:00
12:50 PM,51.8,46.4,82,29.62,6.2,WSW,8.1,-,N/A,,Mostly Cloudy,250,2012-10-04 11:50:00
1:20 PM,50.0,44.6,82,29.65,6.2,West,5.8,-,N/A,Rain,Light Rain Showers,260,2012-10-04 12:20:00
1:50 PM,51.8,46.4,82,29.62,6.2,SW,4.6,-,N/A,,Scattered Clouds,230,2012-10-04 12:50:00
2:20 PM,53.6,46.4,77,29.62,6.2,SW,12.7,-,N/A,,Mostly Cloudy,230,2012-10-04 13:20:00
2:50 PM,53.6,46.4,77,29.62,6.2,SW,15.0,-,N/A,,Mostly Cloudy,220,2012-10-04 13:50:00
3:20 PM,53.6,46.4,77,29.62,6.2,SW,13.8,-,N/A,,Scattered Clouds,220,2012-10-04 14:20:00
3:50 PM,55.4,46.4,72,29.59,6.2,SSW,15.0,-,N/A,,Scattered Clouds,210,2012-10-04 14:50:00
4:20 PM,53.6,46.4,77,29.59,6.2,SSW,13.8,-,N/A,,Scattered Clouds,210,2012-10-04 15:20:00
4:50 PM,51.8,44.6,76,29.59,6.2,SW,15.0,-,N/A,,Scattered Clouds,220,2012-10-04 15:50:00
5:20 PM,50.0,44.6,82,29.62,6.2,SW,12.7,-,N/A,,Scattered Clouds,220,2012-10-04 16:20:00
5:50 PM,50.0,46.4,87,29.59,6.2,SSW,10.4,-,N/A,,Scattered Clouds,210,2012-10-04 16:50:00
6:20 PM,50.0,46.4,87,29.59,6.2,SW,10.4,-,N/A,,Scattered Clouds,220,2012-10-04 17:20:00
6:50 PM,50.0,44.6,82,29.59,6.2,SSW,6.9,-,N/A,,Partly Cloudy,210,2012-10-04 17:50:00
7:20 PM,50.0,42.8,76,29.59,6.2,South,9.2,-,N/A,,Partly Cloudy,190,2012-10-04 18:20:00
7:50 PM,50.0,42.8,76,29.59,6.2,South,8.1,-,N/A,,Partly Cloudy,170,2012-10-04 18:50:00
8:20 PM,48.2,42.8,82,29.56,6.2,SE,5.8,-,N/A,Thunderstorm,Scattered Clouds,140,2012-10-04 19:20:00
8:50 PM,50.0,42.8,76,29.56,6.2,SE,8.1,-,N/A,,Scattered Clouds,140,2012-10-04 19:50:00
9:20 PM,48.2,42.8,82,29.56,6.2,South,5.8,-,N/A,,Mostly Cloudy,180,2012-10-04 20:20:00
9:50 PM,48.2,42.8,82,29.56,6.2,SSW,8.1,-,N/A,,Mostly Cloudy,200,2012-10-04 20:50:00
10:20 PM,48.2,42.8,82,29.53,6.2,South,6.9,-,N/A,Rain,Light Rain,190,2012-10-04 21:20:00
10:50 PM,46.4,42.8,87,29.53,6.2,SE,4.6,-,N/A,Rain,Light Rain,140,2012-10-04 21:50:00
11:20 PM,46.4,42.8,87,29.53,6.2,Variable,3.5,-,N/A,,Mostly Cloudy,0,2012-10-04 22:20:00
11:50 PM,46.4,41.0,81,29.50,6.2,South,4.6,-,N/A,,Mostly Cloudy,170,2012-10-04 22:50:00